Location: Stara Lesna
(49.1528°N, 20.2911°E)
Time: 09:39:31
(UTC+02:00)

Cosmos 1805 Rocket - Pass Details

Date: 13 July 2020
Orbit: 607 x 629 km, 82.5° (Epoch: 05 August)

Event Time Altitude Azimuth Distance (km) Brightness Sun altitude
Exits shadow 00:45:39 44° 197° (SSW) 851 3.8 -19.1°
Maximum altitude 00:47:00 82° 278° (W) 623 3.5 -19.1°
Drops below altitude 10° 00:51:24 10° 8° (N) 1,983 7.4 -19.0°
Sets 00:53:39 0° 10° (N) 2,896 8.6 -19.0°
